GEFSGL_prec_meanprecacc_138.txt.gz
Total_Precipitation_Accumulation
0.62 0.62 0.68 0.76 0.79 0.79 0.88 0.80 0.63 0.57 0.51 0.44 0.39 0.41 0.43 0.45 0.51 0.66 0.82 0.94 1.05 1.09 1.09 1.12 1.14 1.23 1.25 1.16 1.21 1.26 1.35 1.48 1.35 1.07 1.12 1.23 1.10 0.84 0.67 0.60 0.52 0.52 0.50
0.63 0.66 0.68 0.74 0.75 0.72 0.75 0.79 0.72 0.60 0.52 0.48 0.45 0.43 0.37 0.35 0.44 0.58 0.73 0.90 1.03 1.13 1.17 1.19 1.08 1.09 1.18 1.20 1.22 1.24 1.26 1.40 1.33 1.22 1.17 1.27 1.25 1.08 0.89 0.69 0.51 0.44 0.44
0.70 0.71 0.66 0.66 0.61 0.59 0.61 0.63 0.66 0.66 0.66 0.61 0.55 0.50 0.49 0.51 0.57 0.64 0.71 0.83 0.98 1.07 1.11 1.09 1.03 1.06 1.03 1.13 1.18 1.17 1.17 1.17 1.24 1.24 1.23 1.35 1.36 1.21 0.99 0.78 0.59 0.53 0.49
0.63 0.61 0.60 0.61 0.62 0.66 0.67 0.65 0.64 0.64 0.67 0.66 0.61 0.62 0.66 0.71 0.72 0.72 0.72 0.77 0.81 0.86 0.91 0.89 0.86 0.91 0.95 1.02 1.03 1.04 1.08 1.13 1.18 1.18 1.23 1.35 1.38 1.37 1.18 0.93 0.72 0.60 0.55
0.66 0.64 0.58 0.57 0.61 0.66 0.68 0.68 0.67 0.65 0.65 0.74 0.75 0.77 0.80 0.78 0.73 0.77 0.78 0.70 0.74 0.70 0.66 0.68 0.70 0.77 0.82 0.89 0.86 0.90 0.99 1.05 1.09 1.17 1.23 1.37 1.39 1.45 1.30 1.06 0.90 0.75 0.64
0.63 0.70 0.72 0.67 0.62 0.65 0.69 0.68 0.69 0.68 0.73 0.81 0.81 0.82 0.82 0.71 0.70 0.70 0.70 0.66 0.68 0.67 0.64 0.62 0.59 0.64 0.65 0.69 0.72 0.77 0.86 0.94 1.01 1.12 1.20 1.31 1.40 1.40 1.35 1.24 1.10 0.91 0.70
0.67 0.69 0.79 0.87 0.80 0.84 0.86 0.82 0.81 0.82 0.88 0.92 0.98 0.97 0.98 0.97 0.83 0.70 0.64 0.62 0.65 0.67 0.70 0.70 0.54 0.46 0.55 0.61 0.70 0.69 0.68 0.73 0.85 0.99 1.07 1.18 1.37 1.45 1.48 1.36 1.29 1.14 0.88
0.70 0.74 0.86 1.00 0.95 0.97 0.96 0.95 0.99 1.06 1.09 1.14 1.17 1.12 1.10 1.03 0.87 0.67 0.58 0.51 0.55 0.60 0.66 0.70 0.67 0.60 0.59 0.63 0.70 0.71 0.67 0.64 0.70 0.78 0.83 1.03 1.37 1.62 1.65 1.59 1.56 1.45 1.18
0.81 0.92 1.02 1.14 1.19 1.19 1.18 1.20 1.25 1.33 1.38 1.42 1.46 1.41 1.33 1.24 1.00 0.73 0.61 0.54 0.60 0.63 0.68 0.69 0.69 0.63 0.54 0.47 0.55 0.64 0.67 0.67 0.64 0.71 0.78 0.91 1.14 1.47 1.66 1.70 1.72 1.54 1.29
0.99 1.00 1.07 1.24 1.33 1.36 1.36 1.43 1.48 1.54 1.58 1.61 1.51 1.40 1.33 1.30 1.17 0.89 0.75 0.71 0.78 0.81 0.89 0.86 0.75 0.69 0.60 0.48 0.54 0.63 0.63 0.64 0.71 0.73 0.73 0.75 0.86 1.14 1.42 1.44 1.47 1.51 1.27
0.98 1.01 1.10 1.31 1.55 1.58 1.64 1.64 1.64 1.65 1.70 1.70 1.64 1.56 1.48 1.42 1.30 0.95 0.81 0.83 0.90 0.94 0.88 0.88 0.82 0.72 0.56 0.46 0.45 0.53 0.55 0.61 0.76 0.84 0.88 0.92 0.99 1.10 1.24 1.33 1.40 1.42 1.35
1.00 1.06 1.20 1.43 1.53 1.62 1.76 1.77 1.84 1.84 1.77 1.72 1.73 1.63 1.57 1.51 1.28 1.02 0.83 0.84 0.95 1.08 1.06 1.01 0.98 0.84 0.66 0.54 0.45 0.42 0.45 0.50 0.62 0.76 0.83 0.86 0.91 0.96 1.07 1.24 1.42 1.47 1.44
1.00 1.06 1.17 1.29 1.37 1.49 1.55 1.52 1.56 1.64 1.64 1.64 1.63 1.59 1.57 1.61 1.43 1.06 0.87 0.83 0.91 1.06 1.20 1.26 1.11 0.95 0.83 0.69 0.63 0.56 0.51 0.50 0.59 0.68 0.74 0.76 0.81 0.90 1.06 1.29 1.49 1.68 1.63
0.94 0.94 1.04 1.19 1.24 1.31 1.42 1.44 1.51 1.56 1.60 1.66 1.68 1.60 1.58 1.66 1.60 1.27 1.02 0.90 0.87 0.92 1.00 1.03 0.97 0.93 0.85 0.75 0.66 0.57 0.49 0.50 0.57 0.60 0.67 0.76 0.87 1.04 1.13 1.15 1.25 1.45 1.61
0.99 0.94 0.99 1.08 1.18 1.24 1.36 1.44 1.45 1.46 1.41 1.43 1.46 1.43 1.45 1.54 1.47 1.22 1.05 0.95 0.89 0.90 0.95 1.01 1.01 1.01 0.92 0.83 0.75 0.69 0.66 0.66 0.63 0.64 0.73 0.83 0.88 0.96 1.05 1.12 1.18 1.21 1.25
1.06 0.99 0.95 0.96 1.05 1.11 1.20 1.20 1.10 1.07 1.01 0.98 1.00 0.95 0.95 1.11 1.13 0.92 0.80 0.82 0.81 0.78 0.83 0.91 0.97 1.00 0.95 0.87 0.83 0.78 0.77 0.75 0.72 0.76 0.81 0.87 0.91 0.93 0.99 1.13 1.25 1.25 1.15
1.22 1.08 0.95 0.90 0.92 0.98 1.08 1.16 1.17 1.04 0.94 0.85 0.80 0.71 0.67 0.87 0.97 0.84 0.73 0.69 0.66 0.67 0.74 0.81 0.85 0.92 0.96 0.89 0.82 0.77 0.77 0.78 0.83 0.87 0.87 0.90 0.96 1.02 1.08 1.17 1.28 1.34 1.25
1.18 1.07 0.92 0.87 0.87 0.86 0.91 1.00 1.06 1.12 1.09 0.91 0.73 0.61 0.53 0.67 0.80 0.77 0.67 0.59 0.57 0.59 0.66 0.73 0.81 0.86 0.93 0.90 0.83 0.82 0.86 0.92 0.92 0.93 0.95 0.96 1.02 1.07 1.12 1.16 1.20 1.26 1.26
1.05 0.97 0.87 0.84 0.85 0.78 0.73 0.80 0.88 0.96 1.05 1.00 0.80 0.67 0.59 0.66 0.74 0.70 0.60 0.53 0.57 0.58 0.61 0.68 0.76 0.84 0.87 0.86 0.85 0.88 0.90 0.94 0.89 0.91 0.97 1.02 0.99 1.04 1.03 1.07 1.15 1.24 1.27
0.84 0.71 0.69 0.75 0.76 0.73 0.71 0.75 0.83 0.92 0.99 0.97 0.85 0.73 0.62 0.66 0.75 0.74 0.65 0.61 0.60 0.57 0.57 0.63 0.71 0.77 0.82 0.85 0.92 0.96 0.94 0.98 1.00 0.95 0.98 1.05 1.00 0.99 0.98 0.99 1.10 1.16 1.17
0.71 0.58 0.48 0.54 0.65 0.69 0.72 0.78 0.88 0.96 0.98 0.91 0.78 0.64 0.55 0.52 0.63 0.64 0.66 0.68 0.65 0.64 0.65 0.64 0.68 0.73 0.76 0.83 0.91 0.97 0.98 1.01 1.05 0.99 0.98 1.06 1.04 1.05 1.07 1.04 1.06 1.16 1.17
0.66 0.55 0.46 0.48 0.54 0.58 0.68 0.81 0.89 0.90 0.86 0.80 0.73 0.63 0.59 0.56 0.61 0.63 0.68 0.68 0.65 0.64 0.60 0.62 0.65 0.72 0.76 0.80 0.86 0.92 0.95 0.96 1.00 1.03 1.02 1.06 1.08 1.06 1.08 1.07 1.05 1.15 1.24
0.59 0.45 0.37 0.37 0.41 0.44 0.57 0.75 0.81 0.76 0.68 0.67 0.66 0.65 0.65 0.65 0.64 0.65 0.67 0.66 0.64 0.61 0.57 0.61 0.65 0.69 0.75 0.76 0.76 0.83 0.88 0.89 0.88 0.94 1.04 1.05 1.08 1.10 1.11 1.13 1.13 1.15 1.23
0.52 0.39 0.28 0.25 0.30 0.39 0.55 0.72 0.74 0.66 0.62 0.63 0.63 0.65 0.66 0.65 0.64 0.64 0.66 0.67 0.66 0.65 0.63 0.63 0.63 0.62 0.65 0.71 0.70 0.68 0.69 0.67 0.68 0.76 0.88 0.97 1.02 1.11 1.11 1.12 1.15 1.12 1.20
0.49 0.40 0.31 0.26 0.30 0.43 0.61 0.72 0.65 0.58 0.57 0.58 0.56 0.60 0.64 0.66 0.67 0.67 0.66 0.69 0.69 0.71 0.68 0.64 0.63 0.60 0.56 0.56 0.59 0.57 0.55 0.47 0.47 0.57 0.69 0.82 0.87 0.98 1.03 1.03 1.11 1.14 1.15
0.45 0.42 0.36 0.32 0.37 0.49 0.62 0.66 0.60 0.57 0.59 0.57 0.56 0.58 0.64 0.67 0.67 0.64 0.65 0.66 0.65 0.64 0.58 0.54 0.53 0.54 0.53 0.51 0.46 0.42 0.37 0.35 0.37 0.44 0.54 0.67 0.78 0.86 0.93 0.97 1.02 1.10 1.10

GEFSGL_prec_meanprecacc_144.txt.gz
Total_Precipitation_Accumulation
0.70 0.69 0.76 0.83 0.87 0.87 0.96 0.88 0.72 0.65 0.59 0.53 0.48 0.49 0.50 0.52 0.58 0.72 0.87 0.99 1.10 1.13 1.13 1.16 1.20 1.28 1.29 1.20 1.25 1.30 1.39 1.52 1.38 1.09 1.13 1.24 1.11 0.86 0.69 0.61 0.52 0.52 0.50
0.70 0.72 0.73 0.78 0.80 0.79 0.82 0.87 0.83 0.71 0.61 0.57 0.54 0.51 0.43 0.42 0.52 0.65 0.80 0.96 1.10 1.20 1.23 1.25 1.15 1.14 1.24 1.26 1.27 1.29 1.31 1.44 1.37 1.25 1.20 1.28 1.27 1.11 0.92 0.71 0.52 0.44 0.45
0.73 0.74 0.70 0.70 0.65 0.66 0.69 0.72 0.77 0.79 0.77 0.72 0.65 0.58 0.56 0.59 0.65 0.72 0.78 0.90 1.04 1.13 1.18 1.16 1.11 1.15 1.11 1.20 1.26 1.24 1.23 1.21 1.28 1.28 1.26 1.38 1.39 1.23 1.02 0.81 0.61 0.56 0.50
0.65 0.65 0.64 0.67 0.68 0.73 0.75 0.74 0.74 0.74 0.77 0.77 0.74 0.76 0.80 0.84 0.82 0.79 0.78 0.83 0.87 0.92 0.96 0.95 0.93 0.97 1.02 1.09 1.11 1.12 1.16 1.20 1.24 1.23 1.27 1.40 1.43 1.41 1.22 0.97 0.77 0.65 0.58
0.70 0.67 0.62 0.63 0.69 0.73 0.75 0.75 0.75 0.73 0.73 0.84 0.88 0.92 0.96 0.94 0.86 0.88 0.88 0.79 0.83 0.78 0.74 0.75 0.76 0.83 0.88 0.94 0.90 0.96 1.05 1.11 1.15 1.23 1.29 1.43 1.45 1.50 1.35 1.10 0.93 0.80 0.67
0.70 0.76 0.76 0.73 0.68 0.71 0.75 0.74 0.76 0.77 0.83 0.94 0.97 1.00 1.00 0.89 0.88 0.86 0.83 0.78 0.81 0.80 0.76 0.73 0.69 0.71 0.71 0.74 0.76 0.81 0.91 1.00 1.08 1.19 1.27 1.38 1.47 1.46 1.40 1.28 1.13 0.94 0.73
0.77 0.77 0.85 0.91 0.84 0.89 0.92 0.88 0.89 0.92 0.98 1.02 1.10 1.13 1.14 1.14 1.00 0.86 0.80 0.77 0.83 0.86 0.89 0.86 0.65 0.54 0.62 0.67 0.76 0.74 0.74 0.79 0.91 1.05 1.13 1.24 1.43 1.50 1.54 1.41 1.34 1.18 0.91
0.80 0.81 0.91 1.05 1.00 1.01 1.03 1.03 1.09 1.17 1.20 1.27 1.30 1.24 1.24 1.20 1.06 0.85 0.78 0.69 0.72 0.79 0.84 0.86 0.82 0.75 0.72 0.74 0.81 0.80 0.74 0.69 0.74 0.81 0.87 1.07 1.41 1.66 1.70 1.64 1.61 1.48 1.22
0.89 0.99 1.09 1.21 1.28 1.26 1.25 1.34 1.39 1.43 1.48 1.56 1.61 1.55 1.45 1.38 1.15 0.85 0.74 0.67 0.72 0.75 0.79 0.81 0.81 0.75 0.66 0.56 0.62 0.69 0.73 0.72 0.68 0.76 0.82 0.95 1.18 1.51 1.70 1.73 1.74 1.57 1.31
1.04 1.07 1.14 1.31 1.40 1.43 1.43 1.55 1.66 1.68 1.69 1.72 1.63 1.51 1.44 1.42 1.28 0.97 0.83 0.78 0.85 0.88 0.97 0.95 0.84 0.76 0.66 0.54 0.59 0.70 0.72 0.73 0.79 0.80 0.79 0.79 0.90 1.17 1.45 1.47 1.49 1.54 1.31
1.01 1.06 1.15 1.36 1.62 1.66 1.71 1.76 1.82 1.84 1.86 1.84 1.75 1.66 1.57 1.50 1.38 1.02 0.86 0.88 0.96 1.02 0.97 0.97 0.90 0.80 0.65 0.56 0.55 0.63 0.65 0.70 0.84 0.91 0.94 0.96 1.02 1.12 1.27 1.35 1.42 1.45 1.39
1.04 1.11 1.24 1.49 1.59 1.68 1.82 1.86 1.97 2.02 1.98 1.91 1.88 1.75 1.67 1.59 1.35 1.09 0.89 0.89 1.01 1.15 1.15 1.10 1.05 0.91 0.72 0.61 0.51 0.48 0.51 0.55 0.66 0.81 0.88 0.91 0.95 1.00 1.11 1.27 1.44 1.49 1.46
1.04 1.09 1.20 1.34 1.43 1.55 1.61 1.59 1.67 1.77 1.77 1.77 1.75 1.69 1.65 1.67 1.47 1.09 0.90 0.86 0.94 1.10 1.24 1.30 1.15 0.98 0.86 0.73 0.67 0.60 0.55 0.54 0.63 0.72 0.78 0.78 0.83 0.92 1.08 1.30 1.51 1.70 1.64
0.99 0.97 1.06 1.23 1.30 1.36 1.47 1.49 1.58 1.64 1.68 1.74 1.75 1.67 1.63 1.70 1.63 1.31 1.06 0.93 0.90 0.95 1.03 1.06 1.00 0.96 0.87 0.77 0.68 0.58 0.50 0.51 0.58 0.61 0.68 0.77 0.87 1.05 1.13 1.16 1.26 1.46 1.61
1.02 0.97 1.01 1.12 1.22 1.29 1.40 1.49 1.50 1.53 1.50 1.52 1.55 1.52 1.53 1.61 1.54 1.30 1.11 1.00 0.94 0.95 1.00 1.05 1.05 1.04 0.94 0.84 0.76 0.70 0.67 0.66 0.63 0.65 0.73 0.83 0.89 0.97 1.06 1.12 1.18 1.22 1.25
1.08 1.01 0.98 1.00 1.10 1.16 1.25 1.25 1.16 1.13 1.09 1.05 1.08 1.03 1.03 1.19 1.19 0.98 0.85 0.88 0.87 0.84 0.88 0.95 1.01 1.04 0.98 0.90 0.84 0.79 0.78 0.76 0.73 0.76 0.82 0.87 0.92 0.94 1.00 1.14 1.25 1.25 1.15
1.25 1.10 0.98 0.93 0.96 1.01 1.12 1.21 1.23 1.10 1.01 0.93 0.89 0.79 0.74 0.94 1.03 0.90 0.78 0.73 0.70 0.72 0.78 0.85 0.89 0.95 0.99 0.91 0.84 0.79 0.78 0.79 0.84 0.88 0.88 0.91 0.97 1.03 1.09 1.18 1.28 1.34 1.25
1.21 1.10 0.95 0.90 0.90 0.89 0.95 1.05 1.13 1.19 1.16 0.99 0.82 0.70 0.61 0.72 0.84 0.80 0.70 0.62 0.60 0.63 0.69 0.77 0.85 0.90 0.97 0.94 0.86 0.85 0.89 0.94 0.94 0.94 0.95 0.97 1.03 1.08 1.13 1.16 1.20 1.26 1.26
1.08 1.00 0.89 0.86 0.87 0.81 0.76 0.83 0.92 1.00 1.10 1.04 0.85 0.72 0.63 0.69 0.76 0.72 0.61 0.54 0.57 0.59 0.62 0.68 0.76 0.85 0.89 0.88 0.88 0.90 0.93 0.96 0.91 0.92 0.98 1.03 1.00 1.04 1.04 1.08 1.15 1.24 1.27
0.87 0.74 0.71 0.76 0.77 0.74 0.74 0.78 0.88 0.97 1.04 1.02 0.89 0.76 0.64 0.67 0.75 0.75 0.65 0.61 0.61 0.58 0.57 0.63 0.71 0.77 0.82 0.86 0.93 0.97 0.94 0.99 1.01 0.96 0.99 1.06 1.00 0.99 0.99 0.99 1.10 1.16 1.17
0.72 0.59 0.49 0.55 0.66 0.70 0.74 0.80 0.91 0.98 1.00 0.93 0.79 0.65 0.55 0.53 0.63 0.64 0.67 0.68 0.66 0.64 0.65 0.64 0.68 0.74 0.76 0.83 0.92 0.97 0.98 1.01 1.05 0.99 0.98 1.06 1.05 1.05 1.07 1.04 1.06 1.16 1.17
0.68 0.56 0.47 0.49 0.55 0.60 0.70 0.82 0.90 0.91 0.86 0.80 0.73 0.64 0.59 0.56 0.61 0.64 0.68 0.68 0.65 0.64 0.61 0.62 0.65 0.72 0.76 0.80 0.86 0.92 0.95 0.96 1.00 1.03 1.02 1.06 1.08 1.06 1.08 1.07 1.05 1.15 1.24
0.62 0.48 0.39 0.38 0.41 0.45 0.57 0.76 0.82 0.76 0.69 0.67 0.66 0.65 0.65 0.65 0.64 0.65 0.67 0.66 0.64 0.61 0.57 0.61 0.65 0.69 0.75 0.76 0.76 0.83 0.88 0.89 0.88 0.94 1.04 1.05 1.08 1.10 1.11 1.14 1.13 1.15 1.23
0.53 0.40 0.29 0.26 0.30 0.39 0.55 0.72 0.74 0.66 0.62 0.64 0.64 0.65 0.66 0.65 0.64 0.64 0.66 0.67 0.66 0.65 0.63 0.63 0.63 0.62 0.65 0.71 0.70 0.68 0.69 0.67 0.68 0.76 0.88 0.98 1.02 1.11 1.11 1.12 1.15 1.12 1.20
0.49 0.40 0.31 0.26 0.30 0.43 0.61 0.72 0.65 0.59 0.58 0.58 0.56 0.60 0.65 0.67 0.67 0.67 0.67 0.69 0.69 0.71 0.68 0.64 0.63 0.60 0.56 0.56 0.59 0.57 0.55 0.47 0.48 0.57 0.69 0.82 0.88 0.98 1.03 1.04 1.12 1.14 1.16
0.45 0.42 0.36 0.32 0.37 0.49 0.62 0.66 0.60 0.57 0.59 0.57 0.56 0.58 0.64 0.67 0.67 0.65 0.65 0.66 0.66 0.64 0.58 0.54 0.53 0.54 0.53 0.51 0.46 0.42 0.37 0.35 0.37 0.45 0.55 0.67 0.78 0.86 0.93 0.98 1.03 1.11 1.10

GEFSGL_prec_meanprecacc_150.txt.gz
Total_Precipitation_Accumulation
0.76 0.76 0.85 0.93 0.98 1.00 1.12 1.03 0.87 0.80 0.74 0.68 0.62 0.62 0.62 0.63 0.70 0.84 0.98 1.10 1.19 1.22 1.20 1.24 1.27 1.36 1.38 1.28 1.32 1.37 1.47 1.59 1.43 1.12 1.16 1.28 1.16 0.90 0.73 0.64 0.55 0.56 0.53
0.74 0.79 0.84 0.88 0.91 0.90 0.94 0.99 0.98 0.86 0.76 0.71 0.67 0.64 0.54 0.54 0.65 0.78 0.91 1.06 1.19 1.28 1.30 1.33 1.22 1.23 1.33 1.34 1.35 1.36 1.38 1.52 1.43 1.30 1.26 1.36 1.36 1.18 0.99 0.77 0.55 0.46 0.49
0.79 0.82 0.78 0.78 0.74 0.75 0.79 0.84 0.91 0.95 0.94 0.88 0.80 0.73 0.69 0.72 0.79 0.85 0.88 1.00 1.14 1.22 1.26 1.23 1.18 1.23 1.19 1.28 1.34 1.32 1.31 1.30 1.37 1.36 1.33 1.46 1.47 1.31 1.11 0.88 0.67 0.63 0.55
0.71 0.70 0.70 0.73 0.75 0.81 0.84 0.86 0.89 0.91 0.96 0.95 0.90 0.92 0.94 0.98 0.96 0.92 0.89 0.93 0.97 1.01 1.05 1.03 1.01 1.04 1.09 1.17 1.18 1.20 1.23 1.27 1.33 1.31 1.36 1.50 1.53 1.51 1.32 1.05 0.84 0.73 0.65
0.75 0.72 0.67 0.70 0.76 0.80 0.82 0.84 0.84 0.86 0.87 1.01 1.04 1.08 1.11 1.08 0.98 0.99 0.99 0.90 0.95 0.90 0.85 0.85 0.86 0.91 0.94 0.99 0.94 1.01 1.11 1.18 1.23 1.32 1.39 1.53 1.54 1.60 1.44 1.17 1.00 0.87 0.74
0.75 0.80 0.82 0.79 0.75 0.79 0.83 0.82 0.84 0.88 0.97 1.09 1.14 1.16 1.14 1.01 1.01 1.00 0.96 0.91 0.95 0.93 0.89 0.86 0.79 0.79 0.77 0.78 0.80 0.85 0.95 1.05 1.14 1.27 1.35 1.46 1.55 1.54 1.48 1.34 1.19 1.01 0.79
0.83 0.84 0.91 0.99 0.91 0.97 1.00 0.96 0.96 1.00 1.10 1.16 1.29 1.33 1.29 1.27 1.13 0.97 0.91 0.88 0.94 0.98 1.01 1.00 0.79 0.66 0.74 0.77 0.85 0.80 0.78 0.83 0.95 1.11 1.20 1.31 1.50 1.58 1.61 1.48 1.42 1.26 0.99
0.87 0.92 1.06 1.19 1.11 1.12 1.12 1.11 1.16 1.25 1.29 1.38 1.43 1.36 1.34 1.30 1.17 0.94 0.85 0.77 0.82 0.90 0.96 0.98 0.95 0.89 0.89 0.93 0.97 0.93 0.84 0.77 0.81 0.87 0.93 1.13 1.48 1.73 1.76 1.70 1.67 1.54 1.27
0.95 1.09 1.24 1.37 1.42 1.38 1.33 1.41 1.46 1.50 1.56 1.65 1.69 1.63 1.54 1.47 1.24 0.93 0.81 0.74 0.81 0.85 0.90 0.91 0.92 0.85 0.79 0.71 0.77 0.85 0.87 0.83 0.77 0.82 0.87 1.00 1.22 1.54 1.73 1.76 1.79 1.62 1.35
1.08 1.12 1.22 1.39 1.48 1.50 1.48 1.60 1.72 1.75 1.77 1.81 1.71 1.59 1.51 1.48 1.34 1.02 0.88 0.84 0.93 0.97 1.05 1.04 0.94 0.85 0.77 0.64 0.68 0.78 0.80 0.81 0.87 0.89 0.86 0.85 0.96 1.22 1.49 1.51 1.53 1.58 1.35
1.04 1.09 1.18 1.41 1.68 1.71 1.76 1.81 1.89 1.92 1.94 1.94 1.84 1.74 1.65 1.59 1.47 1.10 0.93 0.93 1.03 1.09 1.04 1.03 0.96 0.85 0.70 0.60 0.59 0.66 0.69 0.74 0.88 0.96 0.99 1.01 1.07 1.16 1.29 1.37 1.44 1.48 1.42
1.07 1.14 1.28 1.53 1.63 1.72 1.87 1.92 2.05 2.14 2.10 2.04 2.02 1.87 1.79 1.70 1.45 1.16 0.95 0.95 1.06 1.20 1.19 1.14 1.08 0.94 0.74 0.63 0.53 0.50 0.53 0.57 0.68 0.82 0.90 0.93 0.98 1.03 1.13 1.29 1.47 1.51 1.48
1.07 1.12 1.23 1.37 1.47 1.60 1.67 1.66 1.74 1.85 1.86 1.87 1.86 1.79 1.76 1.78 1.56 1.18 0.97 0.92 1.01 1.15 1.28 1.34 1.17 1.00 0.87 0.74 0.68 0.61 0.57 0.55 0.64 0.72 0.79 0.79 0.84 0.93 1.09 1.31 1.52 1.71 1.65
1.03 1.00 1.09 1.27 1.34 1.41 1.52 1.55 1.64 1.70 1.74 1.81 1.84 1.77 1.73 1.80 1.72 1.40 1.14 1.01 0.97 1.00 1.07 1.09 1.03 0.98 0.89 0.78 0.69 0.60 0.51 0.53 0.59 0.62 0.69 0.78 0.88 1.05 1.14 1.16 1.26 1.46 1.62
1.05 1.01 1.05 1.16 1.25 1.33 1.44 1.53 1.55 1.58 1.56 1.59 1.63 1.60 1.61 1.70 1.64 1.40 1.21 1.08 1.00 0.99 1.03 1.09 1.08 1.07 0.97 0.88 0.79 0.73 0.70 0.69 0.65 0.66 0.74 0.84 0.90 0.97 1.06 1.12 1.18 1.22 1.26
1.10 1.03 1.01 1.03 1.13 1.20 1.28 1.28 1.20 1.19 1.16 1.13 1.16 1.11 1.11 1.27 1.27 1.04 0.91 0.93 0.92 0.89 0.93 1.00 1.06 1.09 1.03 0.94 0.88 0.82 0.81 0.78 0.75 0.78 0.83 0.89 0.93 0.95 1.01 1.14 1.25 1.25 1.16
1.26 1.12 1.00 0.95 0.98 1.05 1.16 1.24 1.26 1.15 1.07 1.00 0.96 0.86 0.80 1.00 1.08 0.94 0.81 0.76 0.73 0.75 0.82 0.90 0.94 1.00 1.03 0.94 0.86 0.81 0.81 0.81 0.86 0.89 0.89 0.92 0.99 1.04 1.10 1.19 1.30 1.36 1.27
1.23 1.12 0.97 0.93 0.93 0.93 0.99 1.08 1.15 1.23 1.21 1.05 0.90 0.78 0.68 0.79 0.89 0.84 0.73 0.64 0.63 0.66 0.72 0.80 0.87 0.92 0.99 0.96 0.88 0.88 0.92 0.98 0.98 0.98 0.99 1.00 1.06 1.11 1.15 1.19 1.23 1.28 1.27
1.11 1.03 0.92 0.89 0.91 0.84 0.79 0.86 0.94 1.03 1.13 1.10 0.91 0.80 0.70 0.75 0.81 0.76 0.64 0.57 0.61 0.61 0.63 0.69 0.77 0.85 0.89 0.89 0.89 0.92 0.94 0.98 0.93 0.95 1.01 1.06 1.04 1.08 1.07 1.10 1.17 1.25 1.28
0.88 0.75 0.73 0.78 0.78 0.75 0.75 0.79 0.89 0.99 1.07 1.05 0.93 0.81 0.70 0.72 0.80 0.78 0.67 0.63 0.62 0.58 0.57 0.63 0.72 0.77 0.83 0.86 0.93 0.97 0.95 0.99 1.02 0.97 1.00 1.07 1.02 1.01 1.01 1.01 1.12 1.17 1.18
0.72 0.59 0.50 0.55 0.66 0.71 0.76 0.83 0.94 1.02 1.04 0.96 0.82 0.67 0.58 0.55 0.65 0.66 0.68 0.69 0.66 0.65 0.65 0.65 0.69 0.74 0.76 0.84 0.92 0.98 0.99 1.02 1.05 1.00 0.99 1.07 1.05 1.05 1.08 1.05 1.06 1.17 1.18
0.68 0.56 0.47 0.49 0.56 0.61 0.72 0.85 0.93 0.94 0.88 0.82 0.74 0.64 0.60 0.57 0.62 0.64 0.69 0.68 0.65 0.65 0.61 0.62 0.65 0.72 0.76 0.80 0.86 0.93 0.96 0.96 1.00 1.03 1.02 1.06 1.08 1.06 1.09 1.07 1.06 1.16 1.25
0.62 0.48 0.39 0.38 0.42 0.45 0.58 0.76 0.82 0.77 0.69 0.67 0.67 0.65 0.65 0.66 0.64 0.66 0.68 0.66 0.64 0.61 0.57 0.61 0.65 0.69 0.75 0.76 0.76 0.83 0.88 0.89 0.88 0.94 1.04 1.06 1.09 1.11 1.12 1.14 1.14 1.16 1.24
0.53 0.40 0.29 0.26 0.30 0.40 0.55 0.72 0.74 0.66 0.62 0.64 0.65 0.66 0.67 0.66 0.64 0.65 0.67 0.68 0.67 0.65 0.63 0.64 0.64 0.62 0.65 0.71 0.70 0.68 0.69 0.67 0.68 0.76 0.88 0.98 1.03 1.11 1.11 1.12 1.15 1.13 1.21
0.49 0.40 0.31 0.26 0.30 0.43 0.61 0.72 0.65 0.59 0.58 0.59 0.57 0.61 0.65 0.68 0.68 0.68 0.68 0.70 0.70 0.72 0.69 0.65 0.64 0.61 0.56 0.56 0.59 0.57 0.55 0.47 0.48 0.57 0.69 0.82 0.88 0.98 1.04 1.04 1.12 1.15 1.16
0.45 0.42 0.36 0.32 0.37 0.49 0.62 0.66 0.61 0.57 0.60 0.57 0.56 0.59 0.64 0.68 0.67 0.65 0.66 0.67 0.66 0.64 0.58 0.55 0.54 0.55 0.53 0.51 0.46 0.42 0.37 0.35 0.37 0.45 0.55 0.67 0.78 0.86 0.93 0.98 1.03 1.11 1.11

GEFSGL_prec_meanprecacc_156.txt.gz
Total_Precipitation_Accumulation
0.81 0.82 0.90 1.00 1.06 1.10 1.23 1.14 0.98 0.90 0.85 0.79 0.74 0.75 0.75 0.76 0.84 0.98 1.11 1.21 1.30 1.31 1.28 1.31 1.31 1.39 1.42 1.32 1.36 1.43 1.54 1.66 1.48 1.16 1.20 1.31 1.20 0.95 0.79 0.70 0.60 0.62 0.64
0.80 0.84 0.88 0.94 0.97 0.98 1.03 1.08 1.08 0.97 0.88 0.83 0.81 0.79 0.68 0.66 0.76 0.88 1.02 1.19 1.31 1.38 1.40 1.42 1.29 1.30 1.40 1.41 1.42 1.43 1.45 1.58 1.49 1.36 1.31 1.39 1.40 1.23 1.04 0.82 0.60 0.51 0.56
0.91 0.89 0.84 0.84 0.79 0.79 0.85 0.91 0.99 1.05 1.06 1.01 0.96 0.90 0.85 0.87 0.94 1.00 1.03 1.15 1.29 1.35 1.39 1.35 1.29 1.33 1.27 1.35 1.41 1.41 1.40 1.38 1.45 1.42 1.38 1.50 1.50 1.34 1.15 0.93 0.72 0.68 0.60
0.79 0.79 0.81 0.79 0.79 0.84 0.90 0.92 0.95 0.99 1.06 1.08 1.04 1.08 1.11 1.14 1.13 1.08 1.03 1.07 1.12 1.17 1.21 1.17 1.13 1.14 1.17 1.25 1.26 1.27 1.32 1.36 1.41 1.38 1.43 1.55 1.57 1.55 1.35 1.08 0.87 0.76 0.68
0.85 0.81 0.75 0.77 0.82 0.85 0.87 0.88 0.90 0.95 0.98 1.12 1.16 1.25 1.32 1.31 1.19 1.17 1.14 1.03 1.11 1.09 1.04 1.02 1.00 1.04 1.08 1.13 1.07 1.11 1.20 1.26 1.31 1.39 1.45 1.59 1.59 1.65 1.48 1.21 1.03 0.90 0.77
0.79 0.85 0.89 0.86 0.81 0.84 0.87 0.87 0.90 0.96 1.06 1.17 1.22 1.31 1.32 1.20 1.20 1.17 1.11 1.06 1.10 1.10 1.06 1.03 0.93 0.93 0.90 0.90 0.92 0.97 1.06 1.13 1.20 1.32 1.40 1.51 1.61 1.60 1.54 1.40 1.26 1.07 0.86
0.85 0.86 0.96 1.04 0.96 1.02 1.05 1.03 1.03 1.07 1.18 1.24 1.36 1.42 1.42 1.41 1.28 1.12 1.06 1.03 1.10 1.14 1.16 1.13 0.90 0.75 0.82 0.85 0.92 0.90 0.88 0.94 1.05 1.19 1.28 1.38 1.57 1.65 1.69 1.56 1.50 1.35 1.08
0.89 0.94 1.10 1.25 1.17 1.19 1.20 1.22 1.27 1.34 1.37 1.46 1.51 1.45 1.44 1.42 1.29 1.06 0.98 0.89 0.94 1.02 1.06 1.07 1.02 0.95 0.96 1.00 1.05 1.04 0.99 0.96 1.01 1.06 1.09 1.26 1.58 1.81 1.83 1.76 1.72 1.60 1.32
0.97 1.11 1.28 1.44 1.51 1.49 1.45 1.54 1.58 1.59 1.63 1.71 1.77 1.73 1.63 1.58 1.38 1.05 0.91 0.83 0.90 0.95 0.99 0.99 0.97 0.89 0.85 0.77 0.83 0.92 0.96 0.94 0.89 0.95 0.99 1.10 1.30 1.62 1.79 1.81 1.84 1.66 1.39
1.11 1.14 1.25 1.43 1.54 1.58 1.59 1.73 1.86 1.87 1.86 1.87 1.78 1.65 1.58 1.56 1.46 1.15 0.98 0.93 1.00 1.04 1.11 1.09 1.00 0.92 0.84 0.70 0.73 0.84 0.85 0.87 0.92 0.94 0.93 0.92 1.01 1.28 1.54 1.54 1.56 1.61 1.39
1.07 1.11 1.20 1.43 1.71 1.75 1.81 1.88 1.97 2.00 2.01 2.00 1.89 1.78 1.71 1.67 1.59 1.25 1.06 1.03 1.10 1.14 1.08 1.07 1.01 0.91 0.74 0.64 0.62 0.69 0.72 0.76 0.90 0.97 1.01 1.03 1.09 1.18 1.31 1.39 1.46 1.50 1.43
1.08 1.15 1.29 1.54 1.65 1.74 1.89 1.94 2.09 2.18 2.14 2.08 2.06 1.92 1.84 1.77 1.53 1.26 1.05 1.03 1.13 1.25 1.25 1.20 1.14 0.98 0.76 0.64 0.55 0.51 0.54 0.58 0.69 0.83 0.90 0.94 0.99 1.04 1.15 1.31 1.48 1.53 1.50
1.08 1.13 1.24 1.38 1.48 1.62 1.69 1.68 1.77 1.88 1.89 1.90 1.89 1.83 1.81 1.84 1.64 1.27 1.07 1.03 1.11 1.24 1.36 1.41 1.22 1.03 0.89 0.75 0.69 0.62 0.57 0.56 0.65 0.73 0.79 0.80 0.85 0.94 1.10 1.32 1.53 1.71 1.65
1.04 1.01 1.10 1.28 1.36 1.43 1.55 1.57 1.66 1.73 1.78 1.85 1.87 1.80 1.77 1.85 1.79 1.48 1.23 1.10 1.05 1.06 1.11 1.13 1.06 1.01 0.91 0.80 0.71 0.61 0.52 0.54 0.61 0.63 0.70 0.79 0.89 1.06 1.15 1.17 1.27 1.47 1.63
1.06 1.02 1.08 1.19 1.28 1.36 1.48 1.56 1.58 1.60 1.59 1.63 1.67 1.65 1.65 1.75 1.71 1.47 1.27 1.14 1.05 1.04 1.08 1.13 1.12 1.11 1.01 0.91 0.82 0.75 0.71 0.70 0.66 0.67 0.76 0.85 0.90 0.98 1.07 1.13 1.19 1.23 1.27
1.12 1.05 1.04 1.05 1.14 1.21 1.30 1.30 1.22 1.21 1.19 1.17 1.20 1.15 1.15 1.31 1.31 1.09 0.96 0.98 0.97 0.94 0.97 1.05 1.11 1.14 1.08 0.99 0.93 0.87 0.87 0.83 0.79 0.81 0.85 0.90 0.94 0.96 1.02 1.16 1.28 1.27 1.18
1.30 1.14 1.02 0.97 0.99 1.06 1.18 1.25 1.27 1.16 1.09 1.03 1.00 0.90 0.84 1.04 1.12 0.98 0.85 0.81 0.78 0.79 0.85 0.93 0.97 1.03 1.06 0.97 0.89 0.84 0.83 0.84 0.89 0.92 0.92 0.95 1.01 1.07 1.13 1.21 1.32 1.39 1.30
1.26 1.15 1.00 0.94 0.95 0.94 1.01 1.11 1.17 1.24 1.22 1.06 0.91 0.81 0.72 0.83 0.95 0.91 0.80 0.71 0.69 0.70 0.75 0.83 0.90 0.94 1.00 0.97 0.89 0.89 0.92 0.98 0.98 0.99 1.00 1.02 1.07 1.13 1.18 1.21 1.26 1.32 1.32
1.17 1.08 0.97 0.93 0.94 0.86 0.81 0.88 0.96 1.04 1.14 1.10 0.92 0.82 0.74 0.80 0.88 0.84 0.73 0.64 0.66 0.65 0.66 0.72 0.79 0.86 0.90 0.89 0.89 0.92 0.94 0.98 0.93 0.95 1.01 1.06 1.04 1.09 1.09 1.13 1.20 1.28 1.31
0.94 0.83 0.80 0.83 0.82 0.78 0.76 0.80 0.90 0.99 1.07 1.06 0.94 0.82 0.72 0.74 0.82 0.81 0.71 0.66 0.65 0.61 0.59 0.64 0.72 0.77 0.83 0.86 0.93 0.97 0.95 0.99 1.02 0.97 1.00 1.08 1.02 1.02 1.02 1.03 1.13 1.19 1.19
0.74 0.62 0.52 0.58 0.68 0.73 0.76 0.83 0.95 1.02 1.04 0.97 0.82 0.68 0.59 0.56 0.66 0.68 0.70 0.71 0.68 0.66 0.66 0.65 0.69 0.74 0.77 0.84 0.92 0.98 0.99 1.02 1.05 1.00 0.99 1.07 1.05 1.06 1.09 1.06 1.07 1.18 1.19
0.69 0.57 0.48 0.49 0.56 0.61 0.72 0.85 0.93 0.94 0.88 0.82 0.74 0.65 0.60 0.57 0.62 0.65 0.69 0.69 0.66 0.66 0.62 0.63 0.66 0.73 0.76 0.81 0.86 0.93 0.96 0.96 1.00 1.03 1.02 1.06 1.09 1.06 1.09 1.08 1.06 1.16 1.25
0.62 0.48 0.39 0.39 0.42 0.45 0.58 0.76 0.82 0.77 0.69 0.67 0.67 0.65 0.65 0.66 0.64 0.66 0.69 0.67 0.65 0.62 0.58 0.62 0.66 0.70 0.76 0.77 0.76 0.83 0.88 0.89 0.88 0.94 1.04 1.06 1.09 1.11 1.12 1.14 1.14 1.16 1.24
0.53 0.40 0.29 0.26 0.30 0.40 0.55 0.72 0.74 0.66 0.62 0.64 0.65 0.67 0.67 0.66 0.64 0.65 0.67 0.68 0.67 0.66 0.63 0.64 0.64 0.62 0.65 0.72 0.70 0.68 0.69 0.67 0.68 0.76 0.88 0.98 1.03 1.11 1.12 1.12 1.15 1.13 1.21
0.49 0.40 0.31 0.26 0.30 0.43 0.61 0.72 0.65 0.59 0.58 0.59 0.57 0.61 0.65 0.68 0.68 0.69 0.68 0.70 0.70 0.72 0.69 0.65 0.64 0.61 0.56 0.56 0.59 0.57 0.55 0.47 0.48 0.57 0.69 0.82 0.88 0.98 1.04 1.04 1.12 1.15 1.16
0.45 0.42 0.36 0.32 0.37 0.49 0.62 0.66 0.61 0.57 0.60 0.57 0.56 0.59 0.64 0.68 0.67 0.65 0.66 0.67 0.66 0.64 0.58 0.55 0.54 0.55 0.54 0.51 0.46 0.42 0.37 0.35 0.37 0.45 0.55 0.67 0.78 0.87 0.93 0.98 1.03 1.11 1.11

GEFSGL_prec_meanprecacc_162.txt.gz
Total_Precipitation_Accumulation
0.86 0.86 0.93 1.03 1.09 1.13 1.27 1.20 1.04 0.97 0.91 0.86 0.82 0.83 0.85 0.85 0.92 1.06 1.20 1.31 1.40 1.40 1.38 1.40 1.39 1.48 1.50 1.39 1.42 1.48 1.58 1.69 1.50 1.18 1.22 1.34 1.23 0.98 0.83 0.74 0.66 0.69 0.69
0.85 0.89 0.92 0.97 1.01 1.02 1.08 1.13 1.14 1.03 0.93 0.89 0.89 0.88 0.78 0.76 0.85 0.97 1.11 1.28 1.40 1.47 1.50 1.53 1.40 1.40 1.49 1.48 1.49 1.49 1.50 1.63 1.54 1.41 1.35 1.43 1.43 1.26 1.07 0.86 0.65 0.57 0.61
0.99 0.95 0.88 0.87 0.82 0.83 0.90 0.96 1.04 1.10 1.12 1.10 1.06 1.01 0.96 0.99 1.08 1.14 1.17 1.29 1.43 1.49 1.52 1.48 1.41 1.44 1.36 1.44 1.49 1.47 1.46 1.45 1.51 1.48 1.44 1.56 1.56 1.38 1.19 0.97 0.76 0.71 0.64
0.85 0.84 0.84 0.82 0.82 0.88 0.93 0.96 0.99 1.03 1.12 1.16 1.13 1.17 1.20 1.23 1.24 1.22 1.20 1.22 1.25 1.28 1.31 1.27 1.24 1.27 1.29 1.37 1.36 1.35 1.39 1.44 1.51 1.48 1.52 1.64 1.67 1.64 1.44 1.16 0.93 0.82 0.73
0.90 0.84 0.78 0.80 0.85 0.88 0.90 0.92 0.94 0.99 1.02 1.18 1.23 1.32 1.39 1.37 1.25 1.25 1.24 1.13 1.20 1.19 1.16 1.14 1.13 1.18 1.20 1.25 1.18 1.22 1.31 1.38 1.43 1.52 1.59 1.75 1.76 1.81 1.63 1.33 1.14 0.98 0.84
0.82 0.87 0.90 0.88 0.84 0.88 0.91 0.91 0.95 1.01 1.11 1.23 1.27 1.36 1.37 1.26 1.28 1.27 1.24 1.18 1.22 1.21 1.17 1.12 1.03 1.03 1.00 1.00 1.02 1.07 1.16 1.25 1.34 1.47 1.54 1.65 1.73 1.72 1.66 1.52 1.36 1.16 0.94
0.88 0.89 0.99 1.07 0.99 1.05 1.08 1.06 1.07 1.11 1.22 1.29 1.41 1.46 1.46 1.47 1.35 1.21 1.19 1.15 1.21 1.26 1.29 1.28 1.03 0.85 0.91 0.92 1.01 0.98 0.95 1.02 1.12 1.26 1.35 1.46 1.65 1.73 1.78 1.67 1.63 1.49 1.24
0.92 0.97 1.13 1.28 1.19 1.22 1.24 1.25 1.31 1.38 1.41 1.50 1.55 1.49 1.49 1.48 1.38 1.16 1.09 1.01 1.08 1.18 1.24 1.26 1.20 1.10 1.08 1.10 1.15 1.13 1.06 1.03 1.08 1.13 1.19 1.37 1.69 1.92 1.94 1.89 1.87 1.74 1.45
1.00 1.12 1.30 1.45 1.53 1.51 1.47 1.56 1.62 1.64 1.68 1.76 1.82 1.77 1.67 1.63 1.45 1.13 1.01 0.94 1.03 1.06 1.09 1.09 1.06 0.97 0.94 0.85 0.89 0.98 1.02 0.99 0.96 1.02 1.09 1.21 1.43 1.75 1.90 1.91 1.94 1.77 1.51
1.14 1.17 1.26 1.45 1.55 1.59 1.60 1.76 1.90 1.93 1.92 1.95 1.84 1.71 1.63 1.61 1.51 1.21 1.05 1.01 1.10 1.14 1.20 1.17 1.10 1.01 0.93 0.78 0.80 0.90 0.91 0.92 0.97 0.98 0.97 0.97 1.07 1.35 1.63 1.62 1.63 1.68 1.44
1.09 1.13 1.20 1.44 1.72 1.76 1.82 1.90 2.00 2.07 2.11 2.11 1.98 1.86 1.77 1.72 1.66 1.31 1.13 1.11 1.19 1.24 1.19 1.18 1.12 1.03 0.83 0.71 0.68 0.75 0.78 0.81 0.93 1.00 1.03 1.05 1.11 1.20 1.33 1.41 1.48 1.51 1.45
1.09 1.16 1.30 1.55 1.65 1.74 1.90 1.95 2.10 2.22 2.22 2.18 2.16 2.02 1.94 1.84 1.58 1.30 1.11 1.11 1.22 1.34 1.33 1.28 1.23 1.07 0.84 0.71 0.61 0.57 0.59 0.61 0.70 0.84 0.91 0.94 0.99 1.04 1.15 1.32 1.49 1.54 1.51
1.09 1.14 1.24 1.39 1.49 1.62 1.70 1.68 1.78 1.90 1.93 1.96 1.97 1.92 1.90 1.91 1.71 1.33 1.11 1.08 1.17 1.29 1.42 1.47 1.29 1.12 0.98 0.84 0.77 0.68 0.61 0.58 0.67 0.75 0.81 0.82 0.86 0.94 1.10 1.33 1.53 1.72 1.66
1.04 1.02 1.11 1.29 1.37 1.44 1.56 1.58 1.68 1.75 1.80 1.88 1.90 1.84 1.83 1.91 1.84 1.52 1.26 1.13 1.08 1.09 1.15 1.18 1.12 1.06 0.97 0.85 0.77 0.67 0.58 0.59 0.65 0.67 0.73 0.81 0.91 1.07 1.16 1.18 1.28 1.48 1.63
1.07 1.03 1.11 1.22 1.31 1.39 1.50 1.59 1.61 1.64 1.62 1.66 1.70 1.67 1.67 1.77 1.74 1.49 1.28 1.15 1.06 1.06 1.10 1.16 1.15 1.15 1.06 0.96 0.88 0.82 0.79 0.79 0.74 0.73 0.80 0.88 0.93 1.00 1.09 1.15 1.21 1.25 1.29
1.16 1.08 1.07 1.08 1.16 1.23 1.31 1.31 1.25 1.24 1.22 1.20 1.24 1.17 1.17 1.33 1.33 1.11 0.98 1.01 1.00 0.97 1.00 1.08 1.15 1.19 1.15 1.08 1.02 0.96 0.95 0.92 0.87 0.88 0.91 0.95 0.98 1.00 1.05 1.18 1.30 1.29 1.19
1.34 1.19 1.06 0.99 1.01 1.07 1.19 1.26 1.28 1.17 1.10 1.04 1.02 0.92 0.86 1.07 1.15 1.00 0.88 0.83 0.80 0.82 0.89 0.97 1.02 1.09 1.13 1.03 0.94 0.88 0.87 0.88 0.92 0.95 0.94 0.96 1.02 1.08 1.13 1.22 1.33 1.40 1.31
1.29 1.18 1.03 0.97 0.96 0.96 1.02 1.11 1.18 1.25 1.23 1.08 0.93 0.83 0.74 0.86 0.97 0.92 0.81 0.72 0.71 0.72 0.77 0.86 0.93 0.98 1.03 1.00 0.91 0.91 0.94 0.99 0.99 0.99 1.01 1.02 1.08 1.13 1.18 1.22 1.26 1.32 1.32
1.18 1.09 0.98 0.95 0.96 0.88 0.82 0.89 0.97 1.06 1.16 1.13 0.96 0.87 0.78 0.82 0.89 0.85 0.73 0.64 0.67 0.68 0.69 0.74 0.81 0.88 0.91 0.90 0.90 0.92 0.94 0.98 0.94 0.95 1.01 1.06 1.04 1.09 1.09 1.13 1.21 1.29 1.32
0.94 0.85 0.82 0.85 0.84 0.81 0.80 0.83 0.93 1.02 1.10 1.09 0.97 0.84 0.73 0.75 0.82 0.82 0.72 0.67 0.66 0.62 0.61 0.66 0.74 0.79 0.84 0.87 0.94 0.98 0.95 0.99 1.02 0.97 1.00 1.08 1.02 1.02 1.02 1.03 1.13 1.19 1.20
0.75 0.63 0.55 0.60 0.70 0.76 0.81 0.88 0.99 1.07 1.08 0.99 0.84 0.69 0.60 0.57 0.67 0.68 0.71 0.72 0.69 0.67 0.67 0.66 0.70 0.75 0.78 0.85 0.94 0.99 1.00 1.02 1.05 1.00 0.99 1.07 1.05 1.06 1.09 1.06 1.07 1.18 1.19
0.70 0.58 0.49 0.51 0.58 0.63 0.73 0.87 0.95 0.95 0.90 0.83 0.75 0.65 0.60 0.57 0.63 0.65 0.70 0.70 0.67 0.66 0.62 0.63 0.66 0.73 0.78 0.82 0.87 0.94 0.96 0.96 1.00 1.03 1.02 1.06 1.09 1.06 1.09 1.08 1.06 1.16 1.25
0.65 0.50 0.40 0.39 0.42 0.46 0.58 0.76 0.82 0.77 0.70 0.68 0.67 0.65 0.65 0.66 0.64 0.66 0.69 0.67 0.65 0.62 0.58 0.62 0.66 0.70 0.76 0.77 0.77 0.83 0.88 0.89 0.88 0.94 1.04 1.06 1.09 1.11 1.12 1.14 1.14 1.16 1.24
0.54 0.41 0.29 0.26 0.30 0.40 0.55 0.72 0.74 0.66 0.62 0.64 0.65 0.67 0.67 0.66 0.64 0.65 0.67 0.68 0.67 0.66 0.63 0.64 0.64 0.62 0.66 0.72 0.71 0.68 0.69 0.67 0.68 0.76 0.88 0.98 1.03 1.11 1.12 1.12 1.16 1.13 1.21
0.49 0.40 0.31 0.26 0.30 0.43 0.61 0.72 0.65 0.59 0.58 0.59 0.57 0.61 0.65 0.68 0.68 0.69 0.68 0.70 0.70 0.72 0.69 0.65 0.64 0.61 0.56 0.57 0.60 0.57 0.55 0.47 0.48 0.57 0.69 0.82 0.88 0.98 1.04 1.04 1.12 1.15 1.17
0.46 0.42 0.36 0.32 0.37 0.49 0.62 0.66 0.61 0.57 0.60 0.57 0.56 0.59 0.64 0.68 0.67 0.65 0.66 0.67 0.66 0.64 0.58 0.55 0.54 0.55 0.54 0.51 0.46 0.42 0.37 0.35 0.37 0.45 0.55 0.67 0.78 0.87 0.93 0.98 1.03 1.11 1.11

GEFSGL_prec_meanprecacc_168.txt.gz
Total_Precipitation_Accumulation
0.93 0.92 1.00 1.10 1.15 1.17 1.31 1.25 1.11 1.05 1.00 0.95 0.91 0.91 0.94 0.92 0.98 1.13 1.27 1.41 1.52 1.52 1.49 1.53 1.53 1.64 1.67 1.54 1.54 1.59 1.68 1.78 1.58 1.24 1.27 1.38 1.28 1.06 0.89 0.79 0.70 0.73 0.73
0.90 0.95 1.01 1.06 1.09 1.07 1.11 1.17 1.19 1.09 1.02 1.00 1.00 0.97 0.89 0.86 0.94 1.08 1.22 1.38 1.50 1.58 1.62 1.66 1.54 1.57 1.67 1.62 1.60 1.59 1.61 1.77 1.69 1.54 1.46 1.53 1.53 1.35 1.16 0.94 0.71 0.62 0.67
1.03 1.01 0.96 0.99 0.94 0.92 0.95 1.00 1.09 1.14 1.17 1.14 1.11 1.07 1.04 1.10 1.21 1.27 1.30 1.40 1.54 1.60 1.64 1.61 1.57 1.63 1.54 1.58 1.63 1.61 1.60 1.60 1.68 1.64 1.57 1.67 1.66 1.47 1.27 1.06 0.84 0.81 0.72
0.89 0.89 0.89 0.88 0.88 0.94 0.99 1.01 1.05 1.08 1.17 1.20 1.15 1.20 1.24 1.28 1.31 1.32 1.31 1.35 1.38 1.40 1.43 1.40 1.39 1.42 1.44 1.52 1.50 1.49 1.54 1.59 1.65 1.61 1.64 1.75 1.77 1.75 1.56 1.30 1.09 0.98 0.87
0.91 0.85 0.80 0.82 0.87 0.90 0.92 0.95 0.99 1.04 1.07 1.23 1.27 1.36 1.44 1.41 1.30 1.31 1.31 1.21 1.29 1.29 1.27 1.27 1.29 1.35 1.37 1.40 1.31 1.34 1.45 1.52 1.57 1.65 1.73 1.89 1.91 1.98 1.81 1.52 1.34 1.19 1.01
0.83 0.89 0.92 0.90 0.85 0.90 0.93 0.94 0.98 1.07 1.18 1.28 1.33 1.42 1.44 1.33 1.36 1.36 1.34 1.29 1.36 1.35 1.31 1.26 1.16 1.16 1.14 1.15 1.17 1.20 1.30 1.38 1.48 1.61 1.68 1.78 1.86 1.85 1.79 1.65 1.51 1.31 1.07
0.89 0.91 1.01 1.09 1.00 1.07 1.10 1.08 1.10 1.16 1.27 1.34 1.45 1.50 1.50 1.53 1.44 1.31 1.31 1.27 1.33 1.38 1.40 1.39 1.14 0.99 1.07 1.07 1.16 1.12 1.07 1.12 1.21 1.36 1.45 1.56 1.75 1.82 1.87 1.76 1.73 1.60 1.35
0.94 0.98 1.13 1.28 1.20 1.23 1.25 1.26 1.32 1.40 1.44 1.54 1.58 1.52 1.52 1.54 1.45 1.21 1.14 1.07 1.15 1.26 1.33 1.37 1.34 1.26 1.23 1.25 1.29 1.26 1.16 1.12 1.18 1.22 1.28 1.45 1.77 2.00 2.02 1.97 1.97 1.85 1.57
1.01 1.13 1.30 1.46 1.53 1.52 1.49 1.57 1.63 1.66 1.71 1.79 1.85 1.82 1.72 1.68 1.48 1.17 1.04 0.98 1.08 1.14 1.17 1.18 1.17 1.08 1.07 0.99 1.03 1.10 1.13 1.09 1.05 1.10 1.14 1.26 1.48 1.81 1.98 2.00 2.05 1.89 1.64
1.15 1.18 1.27 1.45 1.56 1.60 1.61 1.77 1.92 1.96 1.96 2.00 1.89 1.76 1.67 1.65 1.56 1.26 1.10 1.05 1.16 1.21 1.27 1.25 1.21 1.13 1.05 0.90 0.90 0.99 1.01 1.00 1.03 1.03 1.01 1.00 1.10 1.38 1.67 1.67 1.69 1.76 1.53
1.09 1.13 1.21 1.44 1.72 1.76 1.82 1.90 2.01 2.08 2.13 2.15 2.04 1.92 1.82 1.77 1.71 1.37 1.20 1.16 1.24 1.29 1.24 1.24 1.20 1.13 0.93 0.80 0.76 0.82 0.84 0.87 0.99 1.06 1.08 1.09 1.14 1.22 1.35 1.43 1.50 1.55 1.49
1.09 1.17 1.30 1.55 1.66 1.75 1.90 1.96 2.11 2.22 2.23 2.21 2.21 2.08 1.99 1.90 1.65 1.36 1.16 1.16 1.27 1.37 1.36 1.33 1.28 1.13 0.90 0.77 0.67 0.64 0.66 0.68 0.77 0.90 0.97 1.00 1.03 1.07 1.17 1.33 1.50 1.56 1.53
1.10 1.15 1.25 1.39 1.50 1.63 1.70 1.69 1.78 1.91 1.93 1.97 2.01 1.97 1.96 2.01 1.83 1.42 1.16 1.11 1.20 1.31 1.44 1.50 1.32 1.14 1.01 0.87 0.80 0.72 0.65 0.63 0.72 0.81 0.87 0.87 0.91 0.99 1.15 1.36 1.56 1.74 1.68
1.06 1.03 1.12 1.30 1.38 1.45 1.56 1.58 1.68 1.76 1.82 1.89 1.92 1.87 1.88 1.99 1.95 1.61 1.32 1.16 1.10 1.11 1.17 1.21 1.14 1.08 0.98 0.87 0.79 0.70 0.62 0.65 0.72 0.74 0.81 0.89 0.99 1.15 1.22 1.23 1.32 1.51 1.66
1.08 1.04 1.11 1.22 1.32 1.40 1.52 1.61 1.64 1.66 1.65 1.68 1.72 1.69 1.70 1.81 1.79 1.55 1.33 1.19 1.09 1.09 1.12 1.18 1.17 1.17 1.07 0.98 0.90 0.84 0.82 0.84 0.81 0.81 0.88 0.96 1.01 1.09 1.17 1.22 1.28 1.31 1.34
1.16 1.09 1.08 1.09 1.17 1.25 1.34 1.34 1.27 1.25 1.24 1.23 1.27 1.20 1.19 1.35 1.36 1.12 0.99 1.02 1.03 1.00 1.02 1.10 1.17 1.21 1.16 1.09 1.04 0.98 0.98 0.96 0.92 0.93 0.97 1.02 1.05 1.07 1.12 1.25 1.36 1.35 1.24
1.35 1.20 1.07 1.01 1.03 1.09 1.20 1.28 1.30 1.19 1.11 1.05 1.03 0.93 0.87 1.07 1.16 1.01 0.89 0.84 0.81 0.83 0.89 0.98 1.02 1.10 1.13 1.04 0.95 0.89 0.89 0.90 0.95 0.99 0.99 1.02 1.07 1.11 1.16 1.25 1.35 1.42 1.33
1.29 1.18 1.03 0.98 0.97 0.97 1.03 1.12 1.19 1.26 1.24 1.08 0.93 0.83 0.75 0.87 0.98 0.93 0.82 0.73 0.71 0.73 0.78 0.87 0.94 0.98 1.04 1.00 0.92 0.91 0.95 1.00 1.00 1.00 1.02 1.04 1.09 1.14 1.19 1.23 1.27 1.33 1.33
1.18 1.09 0.99 0.96 0.97 0.89 0.84 0.90 0.98 1.06 1.17 1.13 0.96 0.87 0.79 0.83 0.90 0.86 0.75 0.65 0.68 0.68 0.69 0.75 0.82 0.88 0.91 0.90 0.90 0.93 0.95 0.99 0.94 0.95 1.01 1.06 1.04 1.09 1.09 1.13 1.21 1.29 1.32
0.95 0.85 0.82 0.85 0.84 0.82 0.80 0.84 0.93 1.03 1.11 1.09 0.97 0.85 0.74 0.76 0.84 0.83 0.73 0.68 0.67 0.63 0.62 0.67 0.74 0.79 0.84 0.87 0.94 0.98 0.96 1.00 1.02 0.97 1.01 1.08 1.02 1.02 1.02 1.03 1.14 1.19 1.20
0.78 0.65 0.55 0.60 0.70 0.76 0.81 0.88 1.00 1.07 1.09 1.01 0.86 0.71 0.61 0.58 0.68 0.70 0.72 0.73 0.70 0.69 0.68 0.67 0.70 0.76 0.78 0.85 0.94 0.99 1.01 1.03 1.06 1.00 0.99 1.07 1.05 1.06 1.09 1.06 1.08 1.18 1.20
0.75 0.61 0.50 0.51 0.58 0.63 0.74 0.87 0.95 0.95 0.90 0.84 0.76 0.66 0.61 0.58 0.63 0.66 0.71 0.71 0.68 0.66 0.63 0.64 0.67 0.73 0.78 0.82 0.87 0.94 0.96 0.96 1.00 1.03 1.03 1.06 1.09 1.07 1.09 1.08 1.07 1.17 1.26
0.70 0.53 0.42 0.40 0.43 0.47 0.59 0.76 0.83 0.77 0.70 0.68 0.68 0.66 0.66 0.66 0.65 0.67 0.69 0.67 0.65 0.62 0.58 0.62 0.66 0.70 0.76 0.77 0.77 0.83 0.88 0.89 0.88 0.94 1.04 1.06 1.09 1.11 1.12 1.14 1.14 1.17 1.25
0.57 0.44 0.32 0.28 0.32 0.40 0.56 0.73 0.74 0.66 0.62 0.65 0.65 0.67 0.67 0.66 0.65 0.65 0.67 0.68 0.67 0.66 0.63 0.64 0.64 0.62 0.66 0.72 0.71 0.68 0.69 0.67 0.68 0.76 0.88 0.98 1.03 1.11 1.12 1.12 1.16 1.13 1.22
0.50 0.41 0.32 0.26 0.30 0.43 0.61 0.72 0.65 0.59 0.58 0.59 0.57 0.61 0.65 0.68 0.68 0.69 0.68 0.70 0.70 0.72 0.69 0.65 0.64 0.61 0.56 0.57 0.60 0.57 0.55 0.47 0.48 0.57 0.69 0.82 0.88 0.98 1.04 1.04 1.12 1.15 1.17
0.46 0.42 0.36 0.32 0.37 0.49 0.62 0.66 0.61 0.57 0.60 0.57 0.56 0.59 0.64 0.68 0.67 0.65 0.66 0.67 0.66 0.64 0.58 0.55 0.54 0.55 0.54 0.51 0.46 0.42 0.37 0.35 0.37 0.45 0.55 0.67 0.78 0.87 0.93 0.98 1.03 1.12 1.12

GEFSGL_prec_meanprecacc_174.txt.gz
Total_Precipitation_Accumulation
0.97 0.97 1.05 1.18 1.22 1.24 1.38 1.33 1.20 1.12 1.08 1.04 1.01 1.05 1.07 1.05 1.12 1.29 1.43 1.58 1.68 1.69 1.64 1.68 1.70 1.79 1.82 1.69 1.70 1.75 1.86 1.99 1.77 1.39 1.44 1.57 1.49 1.25 1.09 0.97 0.87 0.87 0.83
0.93 0.99 1.05 1.12 1.15 1.13 1.17 1.22 1.25 1.16 1.08 1.08 1.11 1.10 1.02 1.00 1.10 1.25 1.39 1.55 1.68 1.75 1.78 1.83 1.69 1.74 1.87 1.81 1.79 1.78 1.81 1.98 1.90 1.74 1.67 1.73 1.70 1.49 1.30 1.08 0.82 0.71 0.76
1.06 1.04 1.00 1.03 0.97 0.96 1.00 1.04 1.12 1.18 1.21 1.19 1.18 1.15 1.13 1.19 1.31 1.39 1.44 1.55 1.69 1.74 1.78 1.76 1.70 1.78 1.73 1.78 1.83 1.80 1.77 1.75 1.83 1.81 1.73 1.81 1.76 1.56 1.37 1.15 0.93 0.90 0.81
0.92 0.92 0.92 0.91 0.91 0.97 1.02 1.04 1.08 1.11 1.20 1.23 1.20 1.26 1.30 1.33 1.37 1.38 1.39 1.43 1.49 1.51 1.53 1.50 1.49 1.55 1.60 1.68 1.66 1.65 1.68 1.71 1.78 1.75 1.77 1.86 1.87 1.85 1.67 1.41 1.21 1.09 0.97
0.95 0.89 0.84 0.86 0.91 0.94 0.95 0.99 1.02 1.07 1.10 1.27 1.32 1.41 1.49 1.47 1.35 1.37 1.38 1.29 1.39 1.37 1.33 1.33 1.36 1.44 1.45 1.50 1.43 1.46 1.57 1.64 1.69 1.78 1.87 2.02 2.02 2.09 1.92 1.64 1.46 1.31 1.13
0.85 0.90 0.94 0.93 0.89 0.94 0.97 0.98 1.02 1.10 1.22 1.33 1.37 1.47 1.50 1.38 1.42 1.43 1.42 1.39 1.44 1.44 1.40 1.35 1.24 1.23 1.20 1.22 1.25 1.30 1.39 1.49 1.60 1.74 1.81 1.90 1.98 1.97 1.92 1.77 1.64 1.44 1.18
0.90 0.92 1.02 1.10 1.02 1.09 1.13 1.12 1.14 1.20 1.32 1.38 1.50 1.54 1.54 1.57 1.49 1.37 1.37 1.35 1.41 1.46 1.49 1.49 1.24 1.07 1.14 1.13 1.23 1.20 1.16 1.21 1.31 1.45 1.56 1.68 1.87 1.96 2.01 1.91 1.87 1.74 1.46
0.95 0.99 1.14 1.29 1.21 1.24 1.26 1.29 1.35 1.42 1.46 1.57 1.62 1.55 1.56 1.58 1.49 1.24 1.17 1.09 1.18 1.30 1.38 1.43 1.41 1.32 1.29 1.31 1.35 1.33 1.24 1.20 1.27 1.31 1.36 1.54 1.86 2.09 2.11 2.06 2.06 1.94 1.66
1.03 1.14 1.31 1.47 1.54 1.53 1.50 1.59 1.65 1.68 1.73 1.81 1.87 1.84 1.75 1.71 1.51 1.18 1.06 0.99 1.11 1.16 1.19 1.22 1.22 1.13 1.12 1.06 1.11 1.18 1.19 1.17 1.13 1.17 1.21 1.32 1.53 1.86 2.03 2.06 2.11 1.97 1.73
1.16 1.18 1.27 1.46 1.56 1.60 1.61 1.78 1.93 1.97 1.97 2.01 1.91 1.79 1.70 1.67 1.58 1.27 1.11 1.08 1.21 1.25 1.31 1.30 1.28 1.22 1.15 1.00 0.99 1.07 1.07 1.08 1.12 1.11 1.08 1.06 1.15 1.43 1.72 1.71 1.74 1.82 1.60
1.10 1.13 1.21 1.45 1.72 1.77 1.83 1.91 2.03 2.10 2.15 2.16 2.05 1.94 1.84 1.78 1.73 1.40 1.23 1.19 1.29 1.35 1.29 1.29 1.25 1.21 1.02 0.90 0.87 0.92 0.93 0.94 1.05 1.11 1.13 1.14 1.19 1.27 1.41 1.48 1.55 1.60 1.54
1.10 1.17 1.31 1.56 1.66 1.75 1.91 1.97 2.12 2.24 2.25 2.22 2.22 2.09 2.02 1.94 1.68 1.40 1.19 1.19 1.30 1.41 1.40 1.35 1.30 1.16 0.94 0.82 0.72 0.68 0.70 0.72 0.81 0.94 1.01 1.03 1.07 1.11 1.21 1.37 1.54 1.59 1.57
1.11 1.16 1.26 1.40 1.50 1.64 1.71 1.70 1.80 1.92 1.94 1.98 2.02 1.98 1.98 2.08 1.94 1.52 1.23 1.16 1.23 1.34 1.47 1.54 1.34 1.16 1.02 0.88 0.82 0.73 0.66 0.64 0.73 0.82 0.88 0.89 0.93 1.01 1.17 1.39 1.59 1.77 1.71
1.06 1.04 1.13 1.31 1.39 1.46 1.58 1.60 1.69 1.77 1.83 1.90 1.93 1.88 1.89 2.04 2.04 1.73 1.42 1.23 1.15 1.14 1.19 1.23 1.15 1.09 0.99 0.88 0.79 0.71 0.62 0.66 0.73 0.76 0.83 0.91 1.00 1.17 1.25 1.26 1.35 1.56 1.70
1.08 1.05 1.12 1.23 1.33 1.41 1.53 1.62 1.64 1.68 1.66 1.69 1.73 1.70 1.71 1.83 1.82 1.59 1.38 1.25 1.14 1.12 1.14 1.19 1.18 1.18 1.08 0.99 0.91 0.85 0.84 0.85 0.82 0.83 0.89 0.98 1.03 1.10 1.19 1.24 1.30 1.34 1.38
1.17 1.09 1.08 1.09 1.18 1.25 1.34 1.34 1.28 1.26 1.25 1.23 1.27 1.21 1.19 1.36 1.36 1.13 1.00 1.03 1.04 1.01 1.04 1.12 1.18 1.22 1.18 1.11 1.06 1.00 1.00 0.97 0.93 0.94 0.98 1.03 1.07 1.09 1.14 1.28 1.39 1.38 1.28
1.36 1.20 1.07 1.01 1.03 1.09 1.21 1.28 1.30 1.19 1.11 1.05 1.03 0.93 0.87 1.08 1.16 1.02 0.89 0.84 0.82 0.83 0.90 0.98 1.03 1.10 1.14 1.05 0.96 0.89 0.89 0.90 0.96 0.99 0.99 1.02 1.08 1.12 1.18 1.27 1.37 1.44 1.35
1.30 1.19 1.04 0.98 0.97 0.97 1.03 1.12 1.19 1.26 1.24 1.08 0.93 0.83 0.75 0.87 0.98 0.93 0.83 0.73 0.72 0.73 0.78 0.88 0.94 0.99 1.04 1.00 0.92 0.92 0.95 1.00 1.00 1.00 1.02 1.04 1.09 1.14 1.19 1.24 1.29 1.35 1.34
1.19 1.09 0.99 0.96 0.97 0.89 0.84 0.91 0.99 1.06 1.17 1.13 0.96 0.87 0.79 0.84 0.91 0.87 0.75 0.66 0.69 0.69 0.70 0.76 0.82 0.89 0.92 0.90 0.90 0.93 0.95 0.99 0.94 0.95 1.01 1.07 1.04 1.09 1.10 1.14 1.23 1.31 1.34
0.96 0.86 0.83 0.85 0.85 0.82 0.80 0.84 0.93 1.03 1.11 1.09 0.97 0.85 0.74 0.76 0.85 0.84 0.73 0.68 0.67 0.64 0.63 0.68 0.75 0.80 0.84 0.88 0.95 0.98 0.96 1.00 1.02 0.97 1.01 1.08 1.02 1.02 1.02 1.04 1.15 1.21 1.21
0.79 0.67 0.57 0.61 0.71 0.76 0.81 0.89 1.00 1.07 1.09 1.01 0.86 0.71 0.61 0.58 0.69 0.70 0.72 0.74 0.71 0.69 0.69 0.67 0.71 0.76 0.78 0.85 0.94 0.99 1.01 1.03 1.06 1.00 0.99 1.07 1.05 1.06 1.09 1.06 1.08 1.19 1.20
0.78 0.64 0.52 0.52 0.59 0.64 0.74 0.87 0.95 0.96 0.91 0.84 0.76 0.66 0.61 0.58 0.64 0.66 0.71 0.71 0.68 0.67 0.63 0.64 0.67 0.74 0.78 0.82 0.87 0.94 0.96 0.96 1.00 1.03 1.03 1.06 1.09 1.07 1.10 1.08 1.07 1.17 1.26
0.71 0.54 0.43 0.41 0.45 0.48 0.61 0.78 0.85 0.79 0.71 0.68 0.68 0.66 0.66 0.66 0.65 0.67 0.69 0.67 0.65 0.62 0.58 0.62 0.66 0.70 0.76 0.77 0.77 0.83 0.88 0.89 0.88 0.94 1.04 1.06 1.09 1.11 1.12 1.15 1.14 1.17 1.26
0.58 0.45 0.34 0.30 0.34 0.42 0.57 0.74 0.75 0.66 0.63 0.65 0.65 0.67 0.67 0.66 0.65 0.65 0.67 0.68 0.67 0.66 0.63 0.64 0.64 0.62 0.66 0.72 0.71 0.68 0.69 0.67 0.68 0.76 0.88 0.98 1.03 1.12 1.12 1.12 1.16 1.14 1.22
0.50 0.41 0.32 0.27 0.30 0.43 0.61 0.72 0.66 0.59 0.58 0.59 0.57 0.61 0.65 0.68 0.68 0.69 0.68 0.70 0.70 0.72 0.69 0.65 0.64 0.61 0.56 0.57 0.60 0.57 0.55 0.47 0.48 0.57 0.69 0.82 0.88 0.98 1.04 1.04 1.12 1.15 1.17
0.46 0.42 0.36 0.32 0.37 0.49 0.62 0.67 0.61 0.57 0.60 0.58 0.56 0.59 0.64 0.68 0.67 0.65 0.66 0.67 0.66 0.64 0.58 0.55 0.54 0.55 0.54 0.51 0.47 0.42 0.37 0.35 0.37 0.45 0.55 0.67 0.78 0.87 0.93 0.98 1.03 1.12 1.12